Time,TemperatureF,DewpointF,PressureIn,WindDirection,WindDirectionDegrees,WindSpeedMPH,WindSpeedGustMPH,Humidity,HourlyPrecipIn,Conditions,Clouds,dailyrainin,SolarRadiationWatts/m^2,SoftwareType,DateUTC
2013-08-23 00:01:00,64.0,57.0,-100.00,NNW,333,0.0,0.0,79,0.00,,,1.10,0.000000,,2013-08-23 07:01:00,
2013-08-23 00:42:00,64.0,63.0,-100.00,North,354,0.0,0.0,97,0.00,,,1.10,0.000000,,2013-08-23 07:42:00,
2013-08-23 00:52:00,64.0,63.0,-100.00,North,354,0.0,0.0,97,0.00,,,1.10,0.000000,,2013-08-23 07:52:00,
2013-08-23 01:02:00,64.0,63.0,-100.00,North,354,0.0,0.0,97,0.00,,,1.10,0.000000,,2013-08-23 08:02:00,
2013-08-23 01:42:00,63.0,61.0,-100.00,SSW,206,0.0,0.0,93,0.00,,,1.10,0.000000,,2013-08-23 08:42:00,
2013-08-23 01:52:00,63.0,61.0,-100.00,SSW,206,0.0,0.0,93,0.00,,,1.10,0.000000,,2013-08-23 08:52:00,
2013-08-23 02:01:00,63.0,61.0,-100.00,SSW,206,0.0,0.0,93,0.00,,,1.10,0.000000,,2013-08-23 09:01:00,
2013-08-23 02:03:00,64.0,58.0,-100.00,North,353,0.0,0.0,80,0.00,,,1.10,0.000000,,2013-08-23 09:03:00,
2013-08-23 02:43:00,64.0,58.0,-100.00,North,353,0.0,0.0,80,0.00,,,1.10,0.000000,,2013-08-23 09:43:00,
2013-08-23 02:53:00,64.0,58.0,-100.00,North,353,0.0,0.0,80,0.00,,,1.10,0.000000,,2013-08-23 09:53:00,
2013-08-23 03:42:00,62.0,56.0,-100.00,North,357,0.0,0.0,80,0.00,,,1.10,0.000000,,2013-08-23 10:42:00,
2013-08-23 03:52:00,62.0,56.0,-100.00,North,357,0.0,0.0,80,0.00,,,1.10,0.000000,,2013-08-23 10:52:00,
2013-08-23 04:02:00,62.0,56.0,-100.00,North,357,0.0,0.0,80,0.00,,,1.10,0.000000,,2013-08-23 11:02:00,
2013-08-23 04:42:00,62.0,53.0,-100.00,NNW,348,0.0,0.0,73,0.00,,,1.10,0.000000,,2013-08-23 11:42:00,
2013-08-23 04:53:00,62.0,53.0,-100.00,NNW,348,0.0,0.0,73,0.00,,,1.10,0.000000,,2013-08-23 11:53:00,
2013-08-23 05:01:00,62.0,53.0,-100.00,NNW,348,0.0,0.0,73,0.00,,,1.10,0.000000,,2013-08-23 12:01:00,
2013-08-23 05:22:00,63.0,54.0,-100.00,North,351,0.0,0.0,72,0.00,,,1.10,0.000000,,2013-08-23 12:22:00,
2013-08-23 05:32:00,63.0,54.0,-100.00,North,351,0.0,0.0,72,0.00,,,1.10,0.000000,,2013-08-23 12:32:00,
2013-08-23 05:42:00,63.0,54.0,-100.00,North,351,0.0,0.0,72,0.00,,,1.10,0.000000,,2013-08-23 12:42:00,
2013-08-23 05:52:00,63.0,54.0,-100.00,North,351,0.0,0.0,72,0.00,,,1.10,0.000000,,2013-08-23 12:52:00,
2013-08-23 06:02:00,63.0,54.0,-100.00,North,351,0.0,0.0,72,0.00,,,1.10,0.000000,,2013-08-23 13:02:00,
2013-08-23 06:42:00,61.0,55.0,-100.00,North,0,0.0,0.0,80,0.00,,,1.10,1.000000,,2013-08-23 13:42:00,
2013-08-23 06:52:00,61.0,55.0,-100.00,North,0,0.0,0.0,80,0.00,,,1.10,1.000000,,2013-08-23 13:52:00,
2013-08-23 07:02:00,61.0,55.0,-100.00,North,0,0.0,0.0,80,0.00,,,1.10,1.000000,,2013-08-23 14:02:00,
2013-08-23 07:42:00,62.0,54.0,-100.00,North,358,0.0,0.0,74,0.00,,,1.10,34.000000,,2013-08-23 14:42:00,
2013-08-23 07:52:00,62.0,54.0,-100.00,North,358,0.0,0.0,74,0.00,,,1.10,34.000000,,2013-08-23 14:52:00,
2013-08-23 08:01:00,62.0,54.0,-100.00,North,358,0.0,0.0,74,0.00,,,1.10,34.000000,,2013-08-23 15:01:00,
2013-08-23 08:44:00,64.0,53.0,-100.00,North,356,0.0,0.0,68,0.00,,,1.10,97.000000,,2013-08-23 15:44:00,
2013-08-23 09:03:00,79.0,57.0,-100.00,North,3,0.0,0.0,47,-99.99,,,1.10,445.000000,,2013-08-23 16:03:00,
2013-08-23 09:42:00,79.0,57.0,-100.00,North,3,0.0,0.0,47,-99.99,,,1.10,445.000000,,2013-08-23 16:42:00,
2013-08-23 09:53:00,79.0,57.0,-100.00,North,3,0.0,0.0,47,-99.99,,,1.10,445.000000,,2013-08-23 16:53:00,
2013-08-23 10:24:00,81.0,58.0,-100.00,SE,146,0.0,0.0,45,0.00,,,1.10,534.000000,,2013-08-23 17:24:00,
2013-08-23 10:34:00,81.0,58.0,-100.00,SE,146,0.0,0.0,45,0.00,,,1.10,534.000000,,2013-08-23 17:34:00,
2013-08-23 10:43:00,81.0,58.0,-100.00,SE,146,0.0,0.0,45,0.00,,,1.10,534.000000,,2013-08-23 17:43:00,
2013-08-23 10:53:00,81.0,58.0,-100.00,SE,146,0.0,0.0,45,0.00,,,1.10,534.000000,,2013-08-23 17:53:00,
2013-08-23 11:02:00,81.0,58.0,-100.00,SE,146,0.0,0.0,45,0.00,,,1.10,534.000000,,2013-08-23 18:02:00,
2013-08-23 11:42:00,82.0,55.0,-100.00,ESE,119,0.0,0.0,40,0.00,,,1.10,545.000000,,2013-08-23 18:42:00,
2013-08-23 11:52:00,82.0,55.0,-100.00,ESE,119,0.0,0.0,40,0.00,,,1.10,545.000000,,2013-08-23 18:52:00,
2013-08-23 12:01:00,82.0,55.0,-100.00,ESE,119,0.0,0.0,40,0.00,,,1.10,545.000000,,2013-08-23 19:01:00,
2013-08-23 12:22:00,83.0,55.0,-100.00,SSE,149,0.0,0.0,38,0.00,,,1.10,650.000000,,2013-08-23 19:22:00,
2013-08-23 12:32:00,83.0,55.0,-100.00,SSE,149,0.0,0.0,38,0.00,,,1.10,650.000000,,2013-08-23 19:32:00,
2013-08-23 12:42:00,83.0,55.0,-100.00,SSE,149,0.0,0.0,38,0.00,,,1.10,650.000000,,2013-08-23 19:42:00,
2013-08-23 12:52:00,83.0,55.0,-100.00,SSE,149,0.0,0.0,38,0.00,,,1.10,650.000000,,2013-08-23 19:52:00,
2013-08-23 13:42:00,87.0,54.0,-100.00,SE,124,0.0,0.0,32,0.00,,,1.10,691.000000,,2013-08-23 20:42:00,
2013-08-23 13:52:00,87.0,54.0,-100.00,SE,124,0.0,0.0,32,0.00,,,1.10,691.000000,,2013-08-23 20:52:00,
2013-08-23 14:02:00,87.0,54.0,-100.00,SE,124,0.0,0.0,32,0.00,,,1.10,691.000000,,2013-08-23 21:02:00,
2013-08-23 14:03:00,86.0,50.0,-100.00,NW,326,0.0,0.0,29,0.00,,,1.10,789.000000,,2013-08-23 21:03:00,
2013-08-23 14:44:00,86.0,50.0,-100.00,NW,326,0.0,0.0,29,0.00,,,1.10,789.000000,,2013-08-23 21:44:00,
2013-08-23 14:54:00,86.0,50.0,-100.00,NW,326,0.0,0.0,29,0.00,,,1.10,789.000000,,2013-08-23 21:54:00,
2013-08-23 15:03:00,88.0,50.0,-100.00,ENE,60,0.0,0.0,27,0.00,,,1.10,697.000000,,2013-08-23 22:03:00,
2013-08-23 15:43:00,88.0,50.0,-100.00,ENE,60,0.0,0.0,27,0.00,,,1.10,697.000000,,2013-08-23 22:43:00,
2013-08-23 15:53:00,88.0,50.0,-100.00,ENE,60,0.0,0.0,27,0.00,,,1.10,697.000000,,2013-08-23 22:53:00,
2013-08-23 16:43:00,89.0,51.0,-100.00,ENE,69,0.0,0.0,27,0.00,,,1.10,516.000000,,2013-08-23 23:43:00,
2013-08-23 16:54:00,89.0,51.0,-100.00,ENE,69,0.0,0.0,27,0.00,,,1.10,516.000000,,2013-08-23 23:54:00,
2013-08-23 17:02:00,89.0,51.0,-100.00,ENE,69,0.0,0.0,27,0.00,,,1.10,516.000000,,2013-08-24 00:02:00,
2013-08-23 17:22:00,80.0,51.0,-100.00,SE,145,0.0,0.0,37,0.00,,,1.10,343.000000,,2013-08-24 00:22:00,
2013-08-23 17:32:00,80.0,51.0,-100.00,SE,145,0.0,0.0,37,0.00,,,1.10,343.000000,,2013-08-24 00:32:00,
2013-08-23 17:43:00,80.0,51.0,-100.00,SE,145,0.0,0.0,37,0.00,,,1.10,343.000000,,2013-08-24 00:43:00,
2013-08-23 17:53:00,80.0,51.0,-100.00,SE,145,0.0,0.0,37,0.00,,,1.10,343.000000,,2013-08-24 00:53:00,
2013-08-23 18:02:00,80.0,51.0,-100.00,SE,145,0.0,0.0,37,0.00,,,1.10,343.000000,,2013-08-24 01:02:00,
2013-08-23 18:42:00,77.0,55.0,-100.00,NW,320,0.0,0.0,46,0.00,,,1.10,102.000000,,2013-08-24 01:42:00,
2013-08-23 18:53:00,77.0,55.0,-100.00,NW,320,0.0,0.0,46,0.00,,,1.10,102.000000,,2013-08-24 01:53:00,
2013-08-23 19:02:00,77.0,55.0,-100.00,NW,320,0.0,0.0,46,0.00,,,1.10,102.000000,,2013-08-24 02:02:00,
2013-08-23 19:42:00,73.0,54.0,-100.00,NW,323,0.0,0.0,52,0.00,,,0.20,33.000000,,2013-08-24 02:42:00,
2013-08-23 19:52:00,73.0,54.0,-100.00,NW,323,0.0,0.0,52,0.00,,,0.20,33.000000,,2013-08-24 02:52:00,
2013-08-23 20:02:00,73.0,54.0,-100.00,NW,323,0.0,0.0,52,0.00,,,0.20,33.000000,,2013-08-24 03:02:00,
2013-08-23 20:03:00,72.0,55.0,-100.00,NNW,328,0.0,0.0,55,0.00,,,0.00,0.000000,,2013-08-24 03:03:00,
2013-08-23 20:44:00,72.0,55.0,-100.00,NNW,328,0.0,0.0,55,0.00,,,0.00,0.000000,,2013-08-24 03:44:00,
2013-08-23 20:54:00,72.0,55.0,-100.00,NNW,328,0.0,0.0,55,0.00,,,0.00,0.000000,,2013-08-24 03:54:00,
2013-08-23 21:03:00,69.0,54.0,-100.00,NW,322,0.0,0.0,58,0.00,,,0.00,0.000000,,2013-08-24 04:03:00,
2013-08-23 21:44:00,69.0,54.0,-100.00,NW,322,0.0,0.0,58,0.00,,,0.00,0.000000,,2013-08-24 04:44:00,
2013-08-23 21:53:00,69.0,54.0,-100.00,NW,322,0.0,0.0,58,0.00,,,0.00,0.000000,,2013-08-24 04:53:00,
2013-08-23 22:43:00,67.0,52.0,-100.00,NE,35,0.0,0.0,58,0.00,,,0.00,0.000000,,2013-08-24 05:43:00,
2013-08-23 22:53:00,67.0,52.0,-100.00,NE,35,0.0,0.0,58,0.00,,,0.00,0.000000,,2013-08-24 05:53:00,
2013-08-23 23:02:00,67.0,52.0,-100.00,NE,35,0.0,0.0,58,0.00,,,0.00,0.000000,,2013-08-24 06:02:00,
2013-08-23 23:42:00,70.0,51.0,-100.00,NNW,344,0.0,0.0,51,0.00,,,0.00,0.000000,,2013-08-24 06:42:00,
2013-08-23 23:52:00,70.0,51.0,-100.00,NNW,344,0.0,0.0,51,0.00,,,0.00,0.000000,,2013-08-24 06:52:00,